Location: Newark
(44.5208°N, 2.4294°E)
Time: 08:38:36
(UTC+00:00)

N. Korean satellite - Pass Details

Date: 20 October 2019
Orbit: 456 x 506 km, 97.2° (Epoch: 11 November)

Event Time Altitude Azimuth Distance (km) Brightness Sun altitude
Rises 04:47:46 0° 30° (NNE) 2,558 10.7 -15.6°
Reaches altitude 10° 04:50:30 10° 53° (NE) 1,682 10.1 -15.1°
Maximum altitude 04:52:45 16° 92° (E) 1,368 10.1 -14.7°
Drops below altitude 10° 04:55:01 10° 131° (SE) 1,690 10.0 -14.3°
Sets 04:57:46 0° 154° (SSE) 2,575 10.6 -13.8°
